Weather History for KHRI - November, 2013

Change the Weather History Date:

Sunday, November 3, 2013

  Actual Average Record
Temperature  
Mean Temperature 46 °F -  
Max Temperature 54 °F 57 °F 72 °F (1945)
Min Temperature 37 °F 35 °F 0 °F (1935)
Degree Days  
Heating Degree Days 19    
Moisture  
Dew Point 32 °F    
Average Humidity 61    
Maximum Humidity 79    
Minimum Humidity 40    
Precipitation  
Precipitation 0.00 in - - ()
Sea Level Pressure  
Sea Level Pressure 30.00 in    
Wind  
Wind Speed 14 mph (WSW)    
Max Wind Speed 24 mph    
Max Gust Speed 32 mph    
Visibility 10 miles    
Events      
Averages and records for this station are not official NWS values.
T = Trace of Precipitation, MM = Missing Value Source: NWS Daily Summary

Daily Weather History Graph

Daily Weather History Graph

Search for Another Location

Airport or City:

Trip Planner

Search our weather history database for the weather conditions in past years. The results will help you decide how hot, cold, wet, or windy it might be!

Date:

Astronomy

Nov. 03, 2013 Rise Set
Actual Time 6:40 AM PST 4:40 PM PST
Civil Twilight 6:09 AM PST 5:11 PM PST
Nautical Twilight 5:33 AM PST 5:46 PM PST
Astronomical Twilight 4:59 AM PST 6:21 PM PST
Moon 6:51 AM PST (11/3) 4:56 PM PST (11/3)
Length of Visible Light 11h 02m
Length of Day
9h 59m
New Moon, 0% of the Moon is Illuminated
Nov 3
New Moon
Nov 9
First Quarter
Nov 17
Full
Nov 25
Last Quarter
Dec 2
New

Hourly Weather History & Observations

Time (PST) Temp. Windchill Dew Point Humidity Pressure Visibility Wind Dir Wind Speed Gust Speed Precip Events Conditions
12:53 AM 43.0 °F 36.0 °F 33.1 °F 68% 29.94 in 10.0 mi WSW 13.8 mph 24.2 mph N/A   Clear
1:53 AM 42.1 °F 34.2 °F 34.0 °F 73% 29.93 in 10.0 mi WSW 16.1 mph 23.0 mph N/A   Clear
1:53 AM 42.1 °F 35.2 °F 30.9 °F 65% 29.94 in 10.0 mi WSW 12.7 mph 20.7 mph N/A   Clear
2:53 AM 43.0 °F 35.4 °F 32.0 °F 65% 29.94 in 10.0 mi SW 16.1 mph 23.0 mph N/A   Scattered Clouds
3:53 AM 43.0 °F 35.7 °F 32.0 °F 65% 29.95 in 10.0 mi SW 15.0 mph - N/A   Overcast
4:53 AM 39.9 °F 33.4 °F 32.0 °F 73% 29.96 in 10.0 mi SW 10.4 mph - N/A   Scattered Clouds
5:53 AM 42.1 °F 34.2 °F 30.9 °F 65% 29.97 in 10.0 mi SW 16.1 mph - N/A   Overcast
6:53 AM 42.1 °F 34.9 °F 30.9 °F 65% 29.99 in 10.0 mi SW 13.8 mph - N/A   Overcast
7:53 AM 43.0 °F 36.0 °F 30.9 °F 62% 30.01 in 10.0 mi WSW 13.8 mph - N/A   Overcast
8:53 AM 46.0 °F 39.6 °F 33.1 °F 61% 30.02 in 10.0 mi WSW 15.0 mph 23.0 mph N/A   Overcast
9:53 AM 46.9 °F - 33.1 °F 59% 30.04 in 10.0 mi WSW 13.8 mph 20.7 mph N/A   Overcast
10:53 AM 51.1 °F - 34.0 °F 52% 30.04 in 10.0 mi WSW 15.0 mph 23.0 mph N/A   Scattered Clouds
11:53 AM 53.1 °F - 32.0 °F 45% 30.02 in 10.0 mi West 19.6 mph 27.6 mph N/A   Clear
12:53 PM 53.1 °F - 30.0 °F 41% 30.01 in 10.0 mi West 24.2 mph 32.2 mph N/A   Clear
1:53 PM 52.0 °F - 28.0 °F 40% 30.01 in 10.0 mi WSW 17.3 mph 28.8 mph N/A   Clear
2:53 PM 50.0 °F - 30.0 °F 46% 30.02 in 10.0 mi WSW 20.7 mph 28.8 mph N/A   Clear
3:53 PM 48.0 °F - 30.0 °F 50% 30.02 in 10.0 mi WSW 15.0 mph - N/A   Clear
4:53 PM 46.0 °F 39.9 °F 30.9 °F 56% 30.01 in 10.0 mi WSW 13.8 mph - N/A   Clear
5:53 PM 45.0 °F 39.7 °F 32.0 °F 60% 30.03 in 10.0 mi WSW 10.4 mph - N/A   Clear
6:53 PM 44.1 °F 37.4 °F 33.1 °F 65% 30.04 in 10.0 mi WSW 13.8 mph - N/A   Clear
7:53 PM 43.0 °F 37.7 °F 33.1 °F 68% 30.04 in 10.0 mi SW 9.2 mph - N/A   Overcast
8:53 PM 39.9 °F 35.8 °F 33.1 °F 77% 30.05 in 10.0 mi WSW 5.8 mph - N/A   Scattered Clouds
9:53 PM 39.0 °F 32.8 °F 32.0 °F 76% 30.05 in 10.0 mi WSW 9.2 mph - N/A   Clear
10:53 PM 37.0 °F 31.0 °F 30.9 °F 79% 30.06 in 10.0 mi SSW 8.1 mph - N/A   Clear